Location: Complexul Astronomic Baia Mare
(47.6577°N, 23.5639°E)
Time: 05:45:29
(UTC+03:00)

ISS - Pass Details

Date: 16 March 2017
Orbit: 399 x 409 km, 51.6° (Epoch: 30 March)

Event Time Altitude Azimuth Distance (km) Brightness Sun altitude
Exits shadow 05:08:36 23° 308° (NW) 925 -2.4 -15.6°
Maximum altitude 05:10:19 45° 10° (N) 568 -3.0 -15.3°
Drops below altitude 10° 05:13:32 10° 86° (E) 1,478 0.4 -14.8°
Sets 05:15:40 0° 92° (E) 2,339 1.6 -14.4°
